User: anonymous   Login
Location: Brno
(49.2000°N, 16.6330°E)
Time: 05:23:13
(UTC+02:00)
Language:

Cosmos 1459 Rocket - Orbit

View from above orbital plane
View from above orbital plane
View from above satellite
View from above satellite

Ground track
Ground track

The orbit data is extracted from the following two-line orbital elements,

1 14059U 83042B   17173.28299782 +.00000051 +00000-0 +35760-4 0  9993
2 14059 082.9726 058.1565 0041246 252.1295 107.5363 13.78591058716194
Epoch (UTC): 22 June 2017 06:47:31
Eccentricity: 0.0041246
inclination: 82.9726°
perigee height: 938 km
apogee height: 999 km
right ascension of ascending node: 58.1565°
argument of perigee: 252.1295°
revolutions per day: 13.78591058
mean anomaly at epoch: 107.5363°
orbit number at epoch: 71619

The dashed part of the orbit path shows where the satellite is in the earth's shadow,  

DLR